N335LP KPIE-KDHN

Flight info

Callsign N335LP
Flight time N/A
Altitude 16000
Route MOMIE MICES
Aircraft DA42/L-SBDGRY/S

Departure

Time N/A
Airport St. Petersburg Clearwater International Airport (KPIE)

Arrival

Time 2026-04-11 20:06
Airport Dothan Regional Airport (KDHN)
Time Latitude Longitude Altitude Speed Heading
2026-04-11 18:42 28.40627 -82.79234 16006 ft 170 kts 346°
2026-04-11 18:43 28.41783 -82.79588 16006 ft 172 kts 345°
2026-04-11 18:43 28.42940 -82.79941 15978 ft 174 kts 345°
2026-04-11 18:43 28.44110 -82.80299 15974 ft 170 kts 345°
2026-04-11 18:43 28.45258 -82.80652 16006 ft 170 kts 346°
2026-04-11 18:44 28.46395 -82.81000 16002 ft 171 kts 345°
2026-04-11 18:44 28.47557 -82.81356 15973 ft 172 kts 345°
2026-04-11 18:44 28.48710 -82.81709 15991 ft 169 kts 345°
2026-04-11 18:44 28.49845 -82.82058 15998 ft 169 kts 345°
2026-04-11 18:45 28.50993 -82.82410 16022 ft 172 kts 345°
2026-04-11 18:45 28.52148 -82.82764 16001 ft 174 kts 345°
2026-04-11 18:45 28.53252 -82.83103 15985 ft 175 kts 345°
2026-04-11 18:45 28.54433 -82.83466 15962 ft 175 kts 346°
2026-04-11 18:46 28.55605 -82.83826 15956 ft 173 kts 346°
2026-04-11 18:46 28.56770 -82.84184 15957 ft 172 kts 345°
2026-04-11 18:46 28.57929 -82.84539 15956 ft 171 kts 345°
2026-04-11 18:46 28.59085 -82.84895 15965 ft 171 kts 345°
2026-04-11 18:47 28.60230 -82.85247 15964 ft 172 kts 345°
2026-04-11 18:47 28.61391 -82.85603 15967 ft 172 kts 345°
2026-04-11 18:47 28.62554 -82.85961 15966 ft 172 kts 345°
2026-04-11 18:47 28.63716 -82.86319 15958 ft 172 kts 345°
2026-04-11 18:48 28.64875 -82.86675 15954 ft 172 kts 345°
2026-04-11 18:48 28.66015 -82.87052 15956 ft 172 kts 339°
2026-04-11 18:48 28.67100 -82.87635 15962 ft 172 kts 335°
2026-04-11 18:48 28.68178 -82.88241 15961 ft 171 kts 335°
2026-04-11 18:49 28.69242 -82.88840 15962 ft 171 kts 335°
2026-04-11 18:49 28.70318 -82.89446 15964 ft 172 kts 335°
2026-04-11 18:49 28.71386 -82.90049 15961 ft 172 kts 335°
2026-04-11 18:49 28.72467 -82.90659 15969 ft 172 kts 335°
2026-04-11 18:50 28.73542 -82.91265 15962 ft 172 kts 335°
2026-04-11 18:50 28.74616 -82.91871 15959 ft 172 kts 335°
2026-04-11 18:50 28.75678 -82.92470 15962 ft 172 kts 335°
2026-04-11 18:50 28.76753 -82.93076 15961 ft 172 kts 335°
2026-04-11 18:51 28.77829 -82.93683 15961 ft 172 kts 335°
2026-04-11 18:51 28.78902 -82.94290 15957 ft 172 kts 335°
2026-04-11 18:51 28.79979 -82.94898 15962 ft 172 kts 335°
2026-04-11 18:51 28.81040 -82.95497 15960 ft 172 kts 335°
2026-04-11 18:52 28.82113 -82.96104 15959 ft 171 kts 335°
2026-04-11 18:52 28.83184 -82.96708 15957 ft 171 kts 335°
2026-04-11 18:52 28.84251 -82.97310 15955 ft 171 kts 335°
2026-04-11 18:52 28.85318 -82.97914 15961 ft 171 kts 335°
2026-04-11 18:53 28.86388 -82.98518 15958 ft 170 kts 335°
2026-04-11 18:53 28.87453 -82.99121 15961 ft 170 kts 335°
2026-04-11 18:53 28.88507 -82.99718 15956 ft 171 kts 335°
2026-04-11 18:53 28.89575 -83.00322 15961 ft 170 kts 335°
2026-04-11 18:54 28.90644 -83.00926 15964 ft 171 kts 335°
2026-04-11 18:54 28.91715 -83.01533 15962 ft 171 kts 335°
2026-04-11 18:54 28.92788 -83.02142 15962 ft 171 kts 335°
2026-04-11 18:54 28.93859 -83.02748 15962 ft 171 kts 335°
2026-04-11 18:55 28.94915 -83.03347 15965 ft 171 kts 335°
2026-04-11 18:55 28.95985 -83.03952 15967 ft 171 kts 335°
2026-04-11 18:55 28.97056 -83.04559 15960 ft 171 kts 335°
2026-04-11 18:55 28.98124 -83.05164 15960 ft 171 kts 335°
2026-04-11 18:56 28.99195 -83.05771 15949 ft 170 kts 335°
2026-04-11 18:56 29.00259 -83.06374 15961 ft 171 kts 335°
2026-04-11 18:56 29.01325 -83.06979 15953 ft 170 kts 335°
2026-04-11 18:56 29.02376 -83.07575 15958 ft 170 kts 335°
2026-04-11 18:57 29.03440 -83.08179 15958 ft 170 kts 335°
2026-04-11 18:57 29.04506 -83.08785 15967 ft 171 kts 335°
2026-04-11 18:57 29.05573 -83.09391 15957 ft 171 kts 335°
2026-04-11 18:57 29.06640 -83.09997 15956 ft 170 kts 335°
2026-04-11 18:58 29.07706 -83.10603 15955 ft 170 kts 335°
2026-04-11 18:58 29.08751 -83.11196 15966 ft 169 kts 335°
2026-04-11 18:58 29.09812 -83.11800 15968 ft 170 kts 335°
2026-04-11 18:58 29.10883 -83.12409 15967 ft 170 kts 335°
2026-04-11 18:59 29.11951 -83.13015 15963 ft 171 kts 335°
2026-04-11 18:59 29.13016 -83.13620 15954 ft 170 kts 335°
2026-04-11 18:59 29.14063 -83.14215 15968 ft 169 kts 335°
2026-04-11 18:59 29.15125 -83.14820 15970 ft 171 kts 335°
2026-04-11 19:00 29.16195 -83.15430 15960 ft 171 kts 335°
2026-04-11 19:00 29.17262 -83.16036 15961 ft 171 kts 335°
2026-04-11 19:00 29.18331 -83.16647 15957 ft 170 kts 335°
2026-04-11 19:00 29.19385 -83.17245 15964 ft 171 kts 335°
2026-04-11 19:01 29.20452 -83.17853 15958 ft 170 kts 335°
2026-04-11 19:01 29.21516 -83.18459 15967 ft 170 kts 335°
2026-04-11 19:01 29.22580 -83.19066 15958 ft 170 kts 335°
2026-04-11 19:01 29.23644 -83.19673 15961 ft 170 kts 335°
2026-04-11 19:02 29.24697 -83.20274 15961 ft 170 kts 335°
2026-04-11 19:02 29.25764 -83.20882 15966 ft 170 kts 335°
2026-04-11 19:02 29.26833 -83.21491 15955 ft 170 kts 335°
2026-04-11 19:02 29.27884 -83.22090 15965 ft 170 kts 335°
2026-04-11 19:03 29.28952 -83.22701 15979 ft 170 kts 335°
2026-04-11 19:03 29.30023 -83.23312 15976 ft 171 kts 335°
2026-04-11 19:03 29.31078 -83.23914 15966 ft 171 kts 335°
2026-04-11 19:03 29.32143 -83.24522 15971 ft 170 kts 335°
2026-04-11 19:04 29.33207 -83.25130 15964 ft 170 kts 335°
2026-04-11 19:04 29.34265 -83.25736 15956 ft 169 kts 335°
2026-04-11 19:04 29.35318 -83.26336 15962 ft 168 kts 335°
2026-04-11 19:04 29.36368 -83.26937 15970 ft 168 kts 335°
2026-04-11 19:05 29.37069 -83.27338 15973 ft 169 kts 335°
2026-04-11 19:05 29.38465 -83.28136 15968 ft 170 kts 335°
2026-04-11 19:05 29.39526 -83.28743 15959 ft 170 kts 335°
2026-04-11 19:05 29.40585 -83.29348 15967 ft 169 kts 335°
2026-04-11 19:06 29.41645 -83.29955 15968 ft 170 kts 335°
2026-04-11 19:06 29.42706 -83.30563 15966 ft 169 kts 335°
2026-04-11 19:06 29.43765 -83.31167 15973 ft 170 kts 335°
2026-04-11 19:06 29.44825 -83.31775 15969 ft 170 kts 335°
2026-04-11 19:07 29.45869 -83.32373 15968 ft 169 kts 335°
2026-04-11 19:07 29.46929 -83.32980 15956 ft 169 kts 334°
2026-04-11 19:07 29.47984 -83.33584 15951 ft 169 kts 334°
2026-04-11 19:07 29.49035 -83.34188 15954 ft 168 kts 334°
2026-04-11 19:08 29.50089 -83.34792 15961 ft 168 kts 335°
2026-04-11 19:08 29.51144 -83.35398 15967 ft 169 kts 335°
2026-04-11 19:08 29.52192 -83.35999 15965 ft 170 kts 335°
2026-04-11 19:08 29.53254 -83.36610 15964 ft 170 kts 335°
2026-04-11 19:09 29.54321 -83.37221 15963 ft 171 kts 335°
2026-04-11 19:09 29.55386 -83.37832 15951 ft 170 kts 335°
2026-04-11 19:09 29.56436 -83.38434 15940 ft 170 kts 335°
2026-04-11 19:09 29.57498 -83.39043 15947 ft 170 kts 335°
2026-04-11 19:10 29.58558 -83.39652 15940 ft 169 kts 335°
2026-04-11 19:10 29.59613 -83.40258 15932 ft 168 kts 335°
2026-04-11 19:10 29.60663 -83.40863 15952 ft 168 kts 334°
2026-04-11 19:10 29.61700 -83.41459 15960 ft 168 kts 335°
2026-04-11 19:11 29.62752 -83.42064 15963 ft 169 kts 334°
2026-04-11 19:11 29.63804 -83.42670 15962 ft 169 kts 335°
2026-04-11 19:11 29.64858 -83.43276 15956 ft 169 kts 335°
2026-04-11 19:11 29.65911 -83.43882 15959 ft 169 kts 335°
2026-04-11 19:12 29.66968 -83.44490 15967 ft 170 kts 335°
2026-04-11 19:12 29.68026 -83.45100 15967 ft 170 kts 335°
2026-04-11 19:12 29.69089 -83.45712 15961 ft 170 kts 335°
2026-04-11 19:12 29.70149 -83.46322 15955 ft 170 kts 335°
2026-04-11 19:13 29.71193 -83.46923 15964 ft 169 kts 335°
2026-04-11 19:13 29.72216 -83.47512 15958 ft 168 kts 335°
2026-04-11 19:13 29.73266 -83.48116 15959 ft 168 kts 335°
2026-04-11 19:13 29.74312 -83.48719 15962 ft 168 kts 335°
2026-04-11 19:14 29.75359 -83.49322 15962 ft 168 kts 335°
2026-04-11 19:14 29.76408 -83.49927 15967 ft 168 kts 335°
2026-04-11 19:14 29.77445 -83.50526 15965 ft 168 kts 335°
2026-04-11 19:14 29.78495 -83.51132 15971 ft 168 kts 335°
2026-04-11 19:15 29.79546 -83.51739 15971 ft 169 kts 335°
2026-04-11 19:15 29.80600 -83.52348 15965 ft 169 kts 335°
2026-04-11 19:15 29.81652 -83.52956 15968 ft 169 kts 335°
2026-04-11 19:15 29.82708 -83.53566 15974 ft 169 kts 335°
2026-04-11 19:16 29.83762 -83.54176 15956 ft 168 kts 335°
2026-04-11 19:16 29.84800 -83.54776 15960 ft 168 kts 335°
2026-04-11 19:16 29.85844 -83.55396 15959 ft 168 kts 329°
2026-04-11 19:16 29.86695 -83.56335 15937 ft 169 kts 316°
2026-04-11 19:17 29.87484 -83.57320 15974 ft 166 kts 315°
2026-04-11 19:17 29.88261 -83.58301 15998 ft 165 kts 315°
2026-04-11 19:17 29.89027 -83.59268 16005 ft 166 kts 315°
2026-04-11 19:17 29.89807 -83.60253 16011 ft 166 kts 315°
2026-04-11 19:18 29.90588 -83.61243 16017 ft 167 kts 315°
2026-04-11 19:18 29.91375 -83.62239 16016 ft 168 kts 315°
2026-04-11 19:18 29.92166 -83.63242 16017 ft 169 kts 315°
2026-04-11 19:18 29.92957 -83.64247 16016 ft 169 kts 315°
2026-04-11 19:19 29.93745 -83.65247 16016 ft 169 kts 315°
2026-04-11 19:19 29.94540 -83.66258 16024 ft 170 kts 314°
2026-04-11 19:19 29.95346 -83.67278 16012 ft 173 kts 315°
2026-04-11 19:19 29.96150 -83.68299 15991 ft 174 kts 315°
2026-04-11 19:20 29.96963 -83.69332 15971 ft 172 kts 315°
2026-04-11 19:20 29.97762 -83.70348 15976 ft 168 kts 315°
2026-04-11 19:20 29.98549 -83.71348 16008 ft 168 kts 315°
2026-04-11 19:20 29.99341 -83.72353 16013 ft 168 kts 314°
2026-04-11 19:21 30.00119 -83.73344 16013 ft 169 kts 314°
2026-04-11 19:21 30.00914 -83.74355 16010 ft 170 kts 314°
2026-04-11 19:21 30.01712 -83.75369 16001 ft 170 kts 314°
2026-04-11 19:21 30.02510 -83.76386 15984 ft 171 kts 314°
2026-04-11 19:22 30.03310 -83.77405 15985 ft 170 kts 314°
2026-04-11 19:22 30.04091 -83.78400 15982 ft 168 kts 315°
2026-04-11 19:22 30.04876 -83.79401 15997 ft 168 kts 315°
2026-04-11 19:22 30.05662 -83.80402 16015 ft 169 kts 315°
2026-04-11 19:23 30.06459 -83.81415 16005 ft 171 kts 315°
2026-04-11 19:23 30.07262 -83.82438 15991 ft 171 kts 314°
2026-04-11 19:23 30.08074 -83.83473 15991 ft 173 kts 314°
2026-04-11 19:23 30.08878 -83.84497 15966 ft 173 kts 314°
2026-04-11 19:24 30.09688 -83.85529 15959 ft 172 kts 314°
2026-04-11 19:24 30.10494 -83.86560 15953 ft 171 kts 314°
2026-04-11 19:24 30.11285 -83.87569 15957 ft 170 kts 315°
2026-04-11 19:24 30.12080 -83.88586 15961 ft 170 kts 314°
2026-04-11 19:25 30.12878 -83.89604 15962 ft 170 kts 315°
2026-04-11 19:25 30.13677 -83.90623 15964 ft 170 kts 315°
2026-04-11 19:25 30.14463 -83.91628 15978 ft 171 kts 315°
2026-04-11 19:25 30.15267 -83.92656 15968 ft 172 kts 315°
2026-04-11 19:26 30.16069 -83.93682 15952 ft 171 kts 315°
2026-04-11 19:26 30.16865 -83.94699 15959 ft 170 kts 315°
2026-04-11 19:26 30.17648 -83.95699 15952 ft 169 kts 315°
2026-04-11 19:26 30.18440 -83.96712 15966 ft 169 kts 315°
2026-04-11 19:27 30.19234 -83.97728 15969 ft 170 kts 314°
2026-04-11 19:27 30.20030 -83.98747 15955 ft 170 kts 315°
2026-04-11 19:27 30.20815 -83.99752 15961 ft 170 kts 315°
2026-04-11 19:27 30.21610 -84.00771 15967 ft 170 kts 315°
2026-04-11 19:28 30.22406 -84.01790 15953 ft 170 kts 315°
2026-04-11 19:28 30.23195 -84.02803 15970 ft 168 kts 315°
2026-04-11 19:28 30.23978 -84.03805 15980 ft 168 kts 315°
2026-04-11 19:28 30.24756 -84.04803 15989 ft 169 kts 315°
2026-04-11 19:29 30.25547 -84.05817 15968 ft 169 kts 315°
2026-04-11 19:29 30.26331 -84.06823 16000 ft 167 kts 315°
2026-04-11 19:29 30.27120 -84.07832 15995 ft 169 kts 315°
2026-04-11 19:29 30.27904 -84.08838 15975 ft 169 kts 314°
2026-04-11 19:30 30.28692 -84.09852 15985 ft 168 kts 314°
2026-04-11 19:30 30.29474 -84.10855 16004 ft 167 kts 315°
2026-04-11 19:30 30.30257 -84.11860 16017 ft 168 kts 315°
2026-04-11 19:30 30.31032 -84.12857 16011 ft 167 kts 315°
2026-04-11 19:31 30.31815 -84.13863 16021 ft 168 kts 315°
2026-04-11 19:31 30.32600 -84.14872 16021 ft 168 kts 315°
2026-04-11 19:31 30.33377 -84.15871 16023 ft 169 kts 315°
2026-04-11 19:31 30.34166 -84.16885 16021 ft 169 kts 315°
2026-04-11 19:32 30.34956 -84.17900 16023 ft 169 kts 315°
2026-04-11 19:32 30.35744 -84.18914 16023 ft 169 kts 315°
2026-04-11 19:32 30.36524 -84.19916 16021 ft 169 kts 314°
2026-04-11 19:32 30.37314 -84.20933 16021 ft 169 kts 314°
2026-04-11 19:33 30.38104 -84.21950 16022 ft 169 kts 314°
2026-04-11 19:33 30.38886 -84.22960 16021 ft 169 kts 314°
2026-04-11 19:33 30.39675 -84.23975 16020 ft 169 kts 315°
2026-04-11 19:33 30.40470 -84.25001 16020 ft 170 kts 315°
2026-04-11 19:34 30.41252 -84.26007 16021 ft 169 kts 315°
2026-04-11 19:34 30.42043 -84.27028 16020 ft 169 kts 315°
2026-04-11 19:34 30.42835 -84.28049 16022 ft 169 kts 315°
2026-04-11 19:34 30.43615 -84.29056 16023 ft 169 kts 315°
2026-04-11 19:35 30.44411 -84.30081 16021 ft 169 kts 315°
2026-04-11 19:35 30.45191 -84.31087 16021 ft 169 kts 315°
2026-04-11 19:35 30.45980 -84.32106 16021 ft 169 kts 315°
2026-04-11 19:35 30.46769 -84.33124 16020 ft 169 kts 315°
2026-04-11 19:36 30.47547 -84.34129 16020 ft 169 kts 315°
2026-04-11 19:36 30.48334 -84.35146 16020 ft 169 kts 315°
2026-04-11 19:36 30.49114 -84.36154 16020 ft 169 kts 315°
2026-04-11 19:37 30.50690 -84.38192 16022 ft 169 kts 315°
2026-04-11 19:37 30.51467 -84.39198 16020 ft 169 kts 315°
2026-04-11 19:37 30.52255 -84.40217 16018 ft 169 kts 315°
2026-04-11 19:37 30.53043 -84.41237 16017 ft 169 kts 315°
2026-04-11 19:38 30.53823 -84.42246 16018 ft 169 kts 315°
2026-04-11 19:38 30.54605 -84.43258 16017 ft 169 kts 315°
2026-04-11 19:38 30.55391 -84.44274 16017 ft 169 kts 315°
2026-04-11 19:38 30.56186 -84.45303 16016 ft 169 kts 315°
2026-04-11 19:39 30.56962 -84.46310 16015 ft 169 kts 314°
2026-04-11 19:39 30.57750 -84.47333 16015 ft 169 kts 315°
2026-04-11 19:39 30.58530 -84.48342 16021 ft 169 kts 315°
2026-04-11 19:39 30.59319 -84.49365 16009 ft 170 kts 315°
2026-04-11 19:40 30.60114 -84.50395 15996 ft 171 kts 315°
2026-04-11 19:40 30.60907 -84.51424 15931 ft 173 kts 315°
2026-04-11 19:40 30.61712 -84.52469 15910 ft 173 kts 315°
2026-04-11 19:40 30.62509 -84.53504 15915 ft 171 kts 315°
2026-04-11 19:41 30.63301 -84.54533 15925 ft 170 kts 315°
2026-04-11 19:41 30.64094 -84.55562 15912 ft 171 kts 315°
2026-04-11 19:41 30.64887 -84.56593 15911 ft 170 kts 315°
2026-04-11 19:41 30.65670 -84.57609 15911 ft 171 kts 315°
2026-04-11 19:42 30.66462 -84.58641 15908 ft 170 kts 315°
2026-04-11 19:42 30.67252 -84.59666 15907 ft 170 kts 315°
2026-04-11 19:42 30.68033 -84.60680 15908 ft 170 kts 315°
2026-04-11 19:42 30.68823 -84.61710 15907 ft 169 kts 315°
2026-04-11 19:43 30.69610 -84.62734 15908 ft 169 kts 315°
2026-04-11 19:43 30.70390 -84.63747 15905 ft 169 kts 315°
2026-04-11 19:43 30.71176 -84.64772 15910 ft 169 kts 315°
2026-04-11 19:43 30.71956 -84.65788 15908 ft 169 kts 314°
2026-04-11 19:44 30.72726 -84.66807 15907 ft 169 kts 313°
2026-04-11 19:44 30.73505 -84.67856 15828 ft 174 kts 313°
2026-04-11 19:44 30.74309 -84.68945 15530 ft 179 kts 314°
2026-04-11 19:44 30.75114 -84.70037 15238 ft 180 kts 313°
2026-04-11 19:45 30.75931 -84.71149 14942 ft 181 kts 313°
2026-04-11 19:45 30.76751 -84.72260 14645 ft 181 kts 313°
2026-04-11 19:45 30.77560 -84.73364 14353 ft 181 kts 313°
2026-04-11 19:45 30.78379 -84.74478 14059 ft 181 kts 313°
2026-04-11 19:46 30.79184 -84.75577 13767 ft 180 kts 313°
2026-04-11 19:46 30.80001 -84.76692 13474 ft 180 kts 314°
2026-04-11 19:46 30.80816 -84.77802 13178 ft 180 kts 314°
2026-04-11 19:46 30.81620 -84.78898 12890 ft 180 kts 314°
2026-04-11 19:47 30.82435 -84.80007 12598 ft 180 kts 313°
2026-04-11 19:47 30.83240 -84.81107 12306 ft 180 kts 313°
2026-04-11 19:47 30.84052 -84.82217 12001 ft 179 kts 313°
2026-04-11 19:47 30.84862 -84.83321 11718 ft 179 kts 313°
2026-04-11 19:48 30.85658 -84.84407 11454 ft 177 kts 314°
2026-04-11 19:48 30.86472 -84.85453 11199 ft 173 kts 313°
2026-04-11 19:48 30.87256 -84.86532 10890 ft 174 kts 311°
2026-04-11 19:48 30.88018 -84.87620 10603 ft 173 kts 313°
2026-04-11 19:49 30.88803 -84.88673 10268 ft 173 kts 313°
2026-04-11 19:49 30.89599 -84.89720 9927 ft 172 kts 313°
2026-04-11 19:49 30.90377 -84.90745 9617 ft 170 kts 314°
2026-04-11 19:49 30.91158 -84.91777 9281 ft 169 kts 311°
2026-04-11 19:50 30.91898 -84.92846 8926 ft 170 kts 310°
2026-04-11 19:50 30.92628 -84.93909 8616 ft 166 kts 310°
2026-04-11 19:50 30.93335 -84.94974 8239 ft 167 kts 310°
2026-04-11 19:50 30.94073 -84.96019 7857 ft 166 kts 314°
2026-04-11 19:51 30.94830 -84.97017 7463 ft 166 kts 314°
2026-04-11 19:51 30.95596 -84.98014 7062 ft 165 kts 314°
2026-04-11 19:51 30.96361 -84.99010 6661 ft 165 kts 314°
2026-04-11 19:51 30.97100 -85.00008 6271 ft 164 kts 314°
2026-04-11 19:52 30.97845 -85.01010 5887 ft 163 kts 313°
2026-04-11 19:52 30.98562 -85.02015 5597 ft 158 kts 312°
2026-04-11 19:52 30.99259 -85.02999 5355 ft 156 kts 312°
2026-04-11 19:52 30.99941 -85.03951 5129 ft 153 kts 312°
2026-04-11 19:53 31.00629 -85.04900 4913 ft 152 kts 312°
2026-04-11 19:53 31.01300 -85.05855 4737 ft 151 kts 314°
2026-04-11 19:53 31.01989 -85.06768 4544 ft 151 kts 315°
2026-04-11 19:53 31.02679 -85.07694 4381 ft 150 kts 313°
2026-04-11 19:54 31.03340 -85.08646 4193 ft 150 kts 313°
2026-04-11 19:54 31.04022 -85.09570 4025 ft 148 kts 316°
2026-04-11 19:54 31.04709 -85.10430 3886 ft 146 kts 315°
2026-04-11 19:54 31.05351 -85.11362 3727 ft 146 kts 307°
2026-04-11 19:55 31.05914 -85.12346 3597 ft 146 kts 308°
2026-04-11 19:55 31.06557 -85.13258 3517 ft 144 kts 319°
2026-04-11 19:55 31.07242 -85.14108 3473 ft 143 kts 316°
2026-04-11 19:55 31.07932 -85.14934 3408 ft 143 kts 318°
2026-04-11 19:56 31.08637 -85.15749 3366 ft 142 kts 318°
2026-04-11 19:56 31.09297 -85.16618 3338 ft 144 kts 312°
2026-04-11 19:56 31.09903 -85.17556 3308 ft 145 kts 309°
2026-04-11 19:56 31.10498 -85.18518 3296 ft 144 kts 310°
2026-04-11 19:57 31.11120 -85.19410 3250 ft 143 kts 314°
2026-04-11 19:57 31.11776 -85.20294 3184 ft 143 kts 316°
2026-04-11 19:57 31.12461 -85.21148 3125 ft 143 kts 315°
2026-04-11 19:57 31.13116 -85.22015 3072 ft 143 kts 313°
2026-04-11 19:58 31.13726 -85.22936 3026 ft 143 kts 310°
2026-04-11 19:58 31.14350 -85.23852 2990 ft 144 kts 312°
2026-04-11 19:58 31.14983 -85.24738 3000 ft 143 kts 313°
2026-04-11 19:58 31.15611 -85.25640 3010 ft 142 kts 311°
2026-04-11 19:59 31.16237 -85.26549 3013 ft 143 kts 311°
2026-04-11 19:59 31.16865 -85.27440 3019 ft 140 kts 314°
2026-04-11 19:59 31.17528 -85.28295 2931 ft 144 kts 317°
2026-04-11 19:59 31.18243 -85.29118 2919 ft 142 kts 320°
2026-04-11 20:00 31.18965 -85.29891 2895 ft 142 kts 320°
2026-04-11 20:00 31.19690 -85.30693 2858 ft 143 kts 319°
2026-04-11 20:00 31.20387 -85.31520 2824 ft 143 kts 317°
2026-04-11 20:00 31.21092 -85.32352 2762 ft 143 kts 317°
2026-04-11 20:01 31.21785 -85.33191 2692 ft 144 kts 319°
2026-04-11 20:01 31.22513 -85.34001 2630 ft 144 kts 320°
2026-04-11 20:01 31.23231 -85.34815 2549 ft 143 kts 319°
2026-04-11 20:01 31.23963 -85.35616 2432 ft 143 kts 320°
2026-04-11 20:02 31.24636 -85.36365 2313 ft 120 kts 319°
2026-04-11 20:02 31.25198 -85.37034 2103 ft 114 kts 314°
2026-04-11 20:02 31.25712 -85.37712 1918 ft 111 kts 317°
2026-04-11 20:02 31.26253 -85.38342 1745 ft 107 kts 321°
2026-04-11 20:03 31.26816 -85.38918 1569 ft 106 kts 322°
2026-04-11 20:03 31.27322 -85.39517 1415 ft 103 kts 315°
2026-04-11 20:03 31.27786 -85.40136 1319 ft 99 kts 318°
2026-04-11 20:03 31.28292 -85.40661 1209 ft 98 kts 324°
2026-04-11 20:04 31.28809 -85.41189 1093 ft 98 kts 321°
2026-04-11 20:04 31.29275 -85.41770 978 ft 99 kts 313°
2026-04-11 20:04 31.29736 -85.42368 873 ft 98 kts 319°
2026-04-11 20:04 31.30230 -85.42896 737 ft 91 kts 322°
2026-04-11 20:05 31.30689 -85.43398 602 ft 89 kts 319°
2026-04-11 20:05 31.31112 -85.43918 503 ft 88 kts 320°
2026-04-11 20:05 31.31559 -85.44418 388 ft 86 kts 320°
2026-04-11 20:05 31.31922 -85.44840 377 ft 60 kts 319°
2026-04-11 20:06 31.32138 -85.45091 383 ft 14 kts 312°
2026-04-11 20:06 31.32142 -85.45164 383 ft 7 kts 208°
2026-04-11 20:06 31.32097 -85.45186 382 ft 4 kts 203°
2026-04-11 20:06 31.32061 -85.45205 382 ft 6 kts 204°
2026-04-11 20:07 31.32014 -85.45185 381 ft 8 kts 136°
2026-04-11 20:07 31.31970 -85.45135 380 ft 9 kts 136°
2026-04-11 20:07 31.31922 -85.45078 379 ft 10 kts 136°
2026-04-11 20:07 31.31874 -85.45021 378 ft 10 kts 132°
2026-04-11 20:08 31.31822 -85.44965 377 ft 10 kts 137°
2026-04-11 20:08 31.31781 -85.44915 376 ft 7 kts 135°
2026-04-11 20:08 31.31742 -85.44871 375 ft 8 kts 134°
2026-04-11 20:08 31.31699 -85.44820 375 ft 8 kts 135°
2026-04-11 20:09 31.31657 -85.44772 374 ft 8 kts 136°
2026-04-11 20:09 31.31625 -85.44737 373 ft 5 kts 156°
2026-04-11 20:09 31.31596 -85.44746 373 ft 4 kts 233°
2026-04-11 20:09 31.31574 -85.44769 373 ft 3 kts 209°
2026-04-11 20:10 31.31563 -85.44776 373 ft 1 kts 213°
2026-04-11 20:10 31.31562 -85.44777 373 ft 0 kts 213°